Starlink 4482

operational
NORAD ID: 53530 Int'l Des: 2022-101 Owner: SPXS Country: US Constellation: starlink
LEOCIRCULAR

About Starlink 4482

Description loading...

Live Position

Loading 3D Globe...

Upcoming Passes

Altitude History

Altitude vs Time

uPlot chart will show altitude changes over time

Two-Line Element Set

1 53530U 22101D 25303.29399199 .00000252 00000-0 33918-4 0 9993
2 53530 53.2181 299.7128 0001472 87.1834 272.9327 15.08840401176479
Epoch: Oct 30, 2025 • Age: 18 hours

Current Status

Altitude 540.1 km
Velocity 7.60 km/s
Sub-Earth Point 23.98°N, 94.01°W
Launch Date Aug 19, 2022
Age 3.1 years
Type internet

Technical Details

Classification Payload
Mass 300.00 kg
Dry Mass 290.00 kg
Total Mass 300.00 kg
Length 0.20 m
Diameter 2.80 m
Span 9.00 m
Shape Box + pan
Manufacturer SPXS
Bus Type Starlink
Phase Status In Orbit
Owner/State SPXS/US

Large Constellations

Loading constellations...